Location: Carabito
(9.8355°N, 67.9249°W)
Time: 11:06:29
(UTC+00:00)

Cosmos 2263 Rocket - Pass Details

Date: 23 May 2024
Orbit: 824 x 846 km, 71.0° (Epoch: 21 June)

Event Time Altitude Azimuth Distance (km) Brightness Sun altitude
Exits shadow 08:52:16 - 180° (S) 3,313 5.0 -18.4°
Reaches altitude 10° 08:54:38 10° 173° (S) 2,456 4.4 -17.9°
Maximum altitude 08:59:54 41° 104° (ESE) 1,201 3.4 -16.7°
Drops below altitude 10° 09:05:07 10° 36° (NE) 2,442 5.6 -15.5°
Sets 09:07:40 0° 29° (NNE) 3,372 6.2 -15.0°
